Weather History for Indianapolis, IN

Change the Weather History Date:

Tuesday, September 24, 2013

  Actual Average Record
Temperature  
Mean Temperature 64 °F 63 °F  
Max Temperature 77 °F 74 °F 92 °F (2007)
Min Temperature 50 °F 53 °F 34 °F (1887)
Degree Days  
Heating Degree Days 1 4  
Month to date heating degree days 24 39  
Since 1 July heating degree days 32 43  
Cooling Degree Days 0 2  
Month to date cooling degree days 158 117  
Year to date cooling degree days 1117 1038  
Growing Degree Days 14 (Base 50)    
Moisture  
Dew Point 50 °F    
Average Humidity 63    
Maximum Humidity 80    
Minimum Humidity 46    
Precipitation  
Precipitation 0.00 in 0.10 in 1.29 in (1902)
Month to date precipitation 2.32 2.48  
Year to date precipitation 32.25 31.81  
Snow  
Snow 0.00 in 0.00 in 0.00 in ()
Month to date snowfall 0.0 0.0  
Since 1 July snowfall 0.0 0.0  
Since 1 September snowfall 0.0 0.0  
Snow Depth 0.00 in    
Sea Level Pressure  
Sea Level Pressure 29.98 in    
Wind  
Wind Speed 7 mph (ESE)    
Max Wind Speed 13 mph    
Max Gust Speed 16 mph    
Visibility 10 miles    
Events      
T = Trace of Precipitation, MM = Missing Value Source: NWS Daily Summary

Daily Weather History Graph

Daily Weather History Graph

Search for Another Location

Airport:

Trip Planner

Search our weather history database for the weather conditions in past years. The results will help you decide how hot, cold, wet, or windy it might be!

Date:

Astronomy

Sep. 24, 2013 Rise Set
Actual Time 7:34 AM EDT 7:38 PM EDT
Civil Twilight 7:08 AM EDT 8:05 PM EDT
Nautical Twilight 6:36 AM EDT 8:36 PM EDT
Astronomical Twilight 6:04 AM EDT 9:08 PM EDT
Moon 10:56 PM EDT (9/24) 12:48 PM EDT (9/24)
Length of Visible Light 12h 57m
Length of Day
12h 03m
Waning Gibbous, 73% of the Moon is Illuminated
Sep 24
Waning Gibbous
Sep 26
Last Quarter
Oct 4
New
Oct 11
First Quarter
Oct 18
Full

Hourly Weather History & Observations

Time (EDT) Temp. Dew Point Humidity Pressure Visibility Wind Dir Wind Speed Gust Speed Precip Events Conditions
12:54 AM 57.0 °F 45.0 °F 64% 30.02 in 10.0 mi East 10.4 mph - N/A   Clear
1:54 AM 55.0 °F 45.0 °F 69% 30.02 in 10.0 mi East 6.9 mph - N/A   Clear
2:54 AM 53.1 °F 45.0 °F 74% 30.04 in 10.0 mi East 8.1 mph - N/A   Clear
3:54 AM 52.0 °F 45.0 °F 77% 30.03 in 10.0 mi East 8.1 mph - N/A   Clear
4:54 AM 51.1 °F 45.0 °F 80% 30.04 in 10.0 mi East 8.1 mph - N/A   Clear
5:54 AM 51.1 °F 45.0 °F 80% 30.05 in 10.0 mi East 8.1 mph - N/A   Clear
6:54 AM 50.0 °F 45.0 °F 83% 30.06 in 10.0 mi East 8.1 mph - N/A   Clear
7:54 AM 50.0 °F 45.0 °F 83% 30.06 in 10.0 mi East 6.9 mph - N/A   Clear
8:54 AM 53.1 °F 46.0 °F 77% 30.06 in 10.0 mi East 11.5 mph - N/A   Clear
9:54 AM 57.9 °F 46.9 °F 67% 30.06 in 10.0 mi East 8.1 mph - N/A   Partly Cloudy
10:54 AM 62.1 °F 48.0 °F 60% 30.04 in 10.0 mi ESE 10.4 mph - N/A   Partly Cloudy
11:54 AM 66.0 °F 50.0 °F 56% 30.02 in 10.0 mi SE 9.2 mph - N/A   Mostly Cloudy
12:54 PM 70.0 °F 52.0 °F 53% 29.99 in 10.0 mi ESE 10.4 mph - N/A   Scattered Clouds
1:54 PM 72.0 °F 54.0 °F 53% 29.96 in 10.0 mi ESE 8.1 mph - N/A   Partly Cloudy
2:54 PM 73.9 °F 54.0 °F 50% 29.95 in 10.0 mi ESE 6.9 mph - N/A   Clear
3:54 PM 75.0 °F 54.0 °F 48% 29.92 in 10.0 mi ESE 5.8 mph - N/A   Partly Cloudy
4:54 PM 75.9 °F 54.0 °F 46% 29.91 in 10.0 mi SE 6.9 mph - N/A   Partly Cloudy
5:54 PM 75.0 °F 54.0 °F 48% 29.91 in 10.0 mi ENE 3.5 mph - N/A   Scattered Clouds
6:54 PM 73.0 °F 55.9 °F 55% 29.90 in 10.0 mi SSE 5.8 mph - N/A   Scattered Clouds
7:54 PM 71.1 °F 55.0 °F 57% 29.89 in 10.0 mi ESE 3.5 mph - N/A   Mostly Cloudy
8:54 PM 71.1 °F 55.0 °F 57% 29.89 in 10.0 mi East 5.8 mph - N/A   Mostly Cloudy
9:54 PM 69.1 °F 55.0 °F 61% 29.89 in 10.0 mi ESE 8.1 mph - N/A   Mostly Cloudy
10:54 PM 66.9 °F 55.0 °F 66% 29.90 in 10.0 mi East 5.8 mph - N/A   Mostly Cloudy
11:54 PM 64.9 °F 55.0 °F 70% 29.90 in 10.0 mi ENE 5.8 mph - N/A   Mostly Cloudy